Location: Napier
(39.4830°S, 176.9170°E)
Time: 08:47:59
(UTC+13:00)

ADEOS Rocket - Pass Details

Date: 24 January 2019
Orbit: 859 x 1306 km, 98.7° (Epoch: 20 October)

Event Time Altitude Azimuth Distance (km) Brightness Sun altitude
Exits shadow 21:19:41 10° 51° (NE) 2,590 4.5 -8.2°
Reaches altitude 10° 21:19:46 10° 52° (NE) 2,558 4.5 -8.2°
Maximum altitude 21:24:40 32° 113° (ESE) 1,461 3.7 -9.0°
Drops below altitude 10° 21:29:31 10° 174° (S) 2,531 5.6 -9.7°
Sets 21:32:08 0° 183° (S) 3,488 6.5 -10.1°
